STARLINK-32812, 63038

Orbit data source: Space-Track

STARLINK-32812, 63038 is a payload satellite owned by SpaceX/Seattle (US) in LEO that was launched on Tue, 18 Feb 2025 UTC via an FALCON 9 launch vehicle from the Air Force Eastern Test Range (AFETR). Payload-class satellites include a variety of spacecraft equipped with specific instruments for various scientific and technological missions. These include communications satellites like Starlink; space stations such as the ISS; scientific satellites like the Hubble; Earth observation satellites from companies like Planet Labs, Umbra, and HawkEye 360; GPS; miniature CubeSats for education and research; and military/defense satellites.

Loading next visibility...
Identifier
63038, 2025-034K
Orbit
LEO
Country
Flag of USUS
Related business
Manufacturer
SpaceX/Seattle
Mission
Operational Commercial Communications
Bus & Motor
STARLINK V2M, Unknown motor
Mass
730 kg wet, ~700 kg dry
Launch date (UTC)
2025-02-18 (1 year ago)
Launch vehicle
FALCON 9
Launch site
Air Force Eastern Test Range (AFETR)
Object type
Payload
Rocket body
Debris
Shape & HBR
Box + 2 Pan, 17.7 m
Radar Cross Section
33.884 m², Large (>1 m²)

Expand to show TLE details & history
Last TLE update: 1 day ago

TLE from 1 day ago
0 STARLINK-32812
1 63038U 25034K   26170.63557179  .00009850  00000-0  34425-3 0  9996
2 63038  53.1583 144.7020 0001337  89.4968 270.6186 15.30198926 74693
Epoch: 2026-06-19T15:15Z
TLE epoch observation values (Epoch: 2026-06-19T15:15:13.402Z)
Latitude
-0.00002°
Longitude
8.03443°
Altitude
476.108 km
Speed
7.629 km/s
True Right ascension
09h 38m 48s
True Declination
0° 00' 00"
Sunlit
Object was in daylight at epoch
Visualization orbit readout
Latitude
Unknown
Longitude
Unknown
Altitude
Unknown
Speed
Unknown
Apparent Right ascension
Unknown
Apparent Declination
Unknown
Sunlit
N/A
Visualization observer readout
Local Sidereal Time
08:33:27
Azimuth
Unknown
Elevation
Unknown
Doppler factor
Unknown
Orbital elements
Apogee altitude
476.391 km
Perigee altitude
474.559 km
Semi-major axis
6,853.612 km
Eccentricity
0.00013
Inclination
53.1583°
RAAN
144.702°
Arg. of periapsis
89.4968°
True anomaly
270.60328°
Mean anomaly
270.6186°
Eccentric anomaly
270.61094°
Mean motion
3.82529 °/min
Orbital period
94.11 mins
BSTAR
0.00034425
Loading maneuver chart data...
Computing Atmospheric mass density...
Loading historical data...
Loading historical data...
Loading historical data...
Loading historical data...
Loading historical data...
Loading historical data...
Loading historical data...

Documentation

Showing up to 5 results
|